Regional Weather Roundup
Issued by NWS

Home | Current Version | Previous Version | Text Only | Print | Product List | Glossary On
Versions: 1 2 3 4 5 6 7 8 9 10 11 12 13 14 15 16 17 18 19 20 21 22 23 24 25 26 27 28 29 30 31 32 33 34 35 36 37 38 39 40 41 42 43 44 45 46 47 48 49 50
000
ASUS43 KMPX 240410
RWRMN
WEATHER ROUNDUP FOR MINNESOTA
NATIONAL WEATHER SERVICE TWIN CITIES/CHANHASSEN MN
1100 PM CDT SAT JUL 23 2016


NOTE: "FAIR" INDICATES FEW OR NO CLOUDS BELOW 12,000 FEET WITH NO
SIGNIFICANT WEATHER AND/OR OBSTRUCTIONS TO VISIBILITY. N/A MEANS
CURRENT SKY AND/OR WEATHER CONDITIONS ARE NOT AVAILABLE.

MNZ060>063-068>070-240500-
   Twin Cities Metro

CITY           SKY/WX    TMP DP  RH WIND       PRES   REMARKS
TWIN CITIES    CLOUDY    75  71  87 SE3       29.79R
ST PAUL        CLOUDY    74  71  91 SE8       29.79R
CRYSTAL        CLOUDY    75  70  84 SE9       29.77S HAZE
BLAINE         MOCLDY    73  73 100 SE5       29.79R
LAKEVILLE      CLOUDY    73  72  94 SE6       29.80R
EDEN PRAIRIE   CLOUDY    77  71  82 SE9       29.78R
LAKEVILLE      CLOUDY    73  72  94 SE6       29.80R
SOUTH ST PAUL  CLOUDY    74  72  93 SE3       29.79R
LAKE ELMO      CLOUDY    72  72 100 CALM      29.81S
$$
MNZ001>005-007-008-013>017-022>024-027-028-240500-
   Northwest Minnesota

CITY           SKY/WX    TMP DP  RH WIND       PRES   REMARKS
BEMIDJI        CLOUDY    72  68  88 S8        29.75S
HALLOCK        PTCLDY    70  66  88 SW3       29.69S
ROSEAU         DRIZZLE   72  66  83 SW6       29.70S
WARROAD        CLOUDY    72  68  88 W8        29.69S
THIEF RVR FALL CLOUDY    70  69  97 SW6       29.75R
CROOKSTON      CLOUDY    72  70  94 W5        29.74R
FOSSTON        CLOUDY    72  70  94 SW7       29.75S
DETROIT LAKES  CLOUDY    68  64  88 SE3       29.81R
MOORHEAD       MOCLDY    75  73  94 CALM      29.77R
PARK RAPIDS    LGT RAIN  74  69  85 SE5       29.77R
MAHNOMEN       MOCLDY    69  66  92 S7        29.76R
$$
MNZ006-009>011-018-025>026-240500-
   North Central Minnesota

CITY           SKY/WX    TMP DP  RH WIND       PRES   REMARKS
BAUDETTE       CLOUDY    74  68  81 S9        29.70F
FLAG ISLAND    TSTM      68  66  94 NW6       29.67S
INTL FALLS     CLOUDY    72  65  78 S6        29.74S
WASKISH        CLOUDY    72  66  83 S5        29.73R
BIG FORK       CLOUDY    72  64  78 S6        29.77S
LONGVILLE      CLOUDY    70  66  88 SE6       29.76F
GRAND RAPIDS   MOCLDY    68  65  90 SE6       29.80R
ORR            CLOUDY    70  63  78 SE9       29.77S
COOK           MOCLDY    68  64  88 SE7       29.80F
WALKER         CLOUDY    71  67  87 SE7       29.75F
$$
MNZ012-019>021-037-240500-
   Northeast Minnesota

CITY           SKY/WX    TMP DP  RH WIND       PRES   REMARKS
DULUTH         MOCLDY    62  59  90 SE9       29.82S
ELY            CLEAR     64  57  77 SE5       29.82F
HIBBING        CLOUDY    66  64  93 SE5       29.81R
EVELETH        MOCLDY    67  63  88 CALM      29.83R
DULUTH HARBOR  CLOUDY    63  61  94 NE9       29.82S
TWO HARBORS    PTCLDY    66  61  82 CALM      29.80S
SILVER BAY     PTCLDY    63  61  94 CALM      29.81S
GRAND MARAIS     N/A     64  56  75 NE9       29.82F
G MARAIS ARPRT CLOUDY    64  54  68 E9        29.88S
$$
MNZ029>031-032-039>041-046>048-054>057-064-240500-
   West Central Minnesota

CITY           SKY/WX    TMP DP  RH WIND       PRES   REMARKS
FERGUS FALLS   CLOUDY    70  70 100 NW3       29.80R
WHEATON        CLOUDY    72  72 100 NW6       29.80R
MORRIS         TSTM      77  75  94 S8        29.74S
ALEXANDRIA     CLOUDY    75  72  90 S10       29.76S
ELBOW LAKE     LGT RAIN  71  69  93 SW14      29.79R
WADENA         CLOUDY    72  70  94 CALM      29.76R
GLENWOOD       PTCLDY    73  72  94 SE5       29.77R
APPLETON       LGT RAIN  79  73  83 W13G21    29.73R
BENSON         CLOUDY    75  72  88 S7        29.73S
ORTONVILLE     CLOUDY    79  75  89 NW6       29.76R
MADISON        CLEAR     79  75  89 SW3       29.74R
WILLMAR        FAIR      75  75 100 SE6       29.76F
$$
MNZ033>034-036-042>043-049>051-058-059-240500-
   Central Minnesota

CITY           SKY/WX    TMP DP  RH WIND       PRES   REMARKS
ST CLOUD       MOCLDY    72  72 100 E5        29.77S
SAUK CENTRE    CLOUDY    73  71  96 SE6       29.76F
PAYNESVILLE    CLEAR     74  74 100 SE7       29.76F
AITKIN         CLOUDY    72  64  78 SE3       29.78S
PINE RIVER     CLOUDY    72  70  94 SE6       29.81S
BRAINERD       CLOUDY    72  69  90 SE5       29.78R
STAPLES        CLOUDY    73  68  83 SE5       29.75S
LONG PRAIRIE   CLOUDY    72  70  94 E8        29.77S
LITTLE FALLS   CLOUDY    72  68  88 SE7       29.77S
LITCHFIELD     CLEAR     75  75 100 SE7       29.77S
BUFFALO        MOCLDY    73  70  91 E3        29.79R
MAPLE LAKE     PTCLDY    74  73  94 SE3       29.78R
HUTCHINSON     PTCLDY    75  74  98 SE3       29.78R
$$
MNZ037-044-045-052-053-240500-
   East Central Minnesota

CITY           SKY/WX    TMP DP  RH WIND       PRES   REMARKS
PRINCETON      MOCLDY    72  70  94 SE7       29.79R
MORA           CLOUDY    70  68  94 SE5       29.81R
CAMBRIDGE      CLOUDY    73  66  78 SE5       29.77S
RUSH CITY      CLOUDY    71  69  93 SE5       29.80S
MOOSE LAKE     CLOUDY    64  61  88 NE3       29.80R
HINCKLEY       CLOUDY    72  70  94 SE3       29.80R
CLOQUET        CLOUDY    63  57  82 E5        29.81F
MCGREGOR       CLOUDY    68  66  94 E6        29.79F
$$
MNZ071>073-080-081-089-090-097-098-240500-
   Southwest Minnesota

CITY           SKY/WX    TMP DP  RH WIND       PRES   REMARKS
MONTEVIDEO     CLEAR     79  79 100 S8        29.75S
GRANITE FALLS  PTCLDY    81  78  92 SE7       29.76R
CANBY          PTCLDY    80  76  89 NW9       29.76R
MARSHALL       CLEAR     81  78  91 S9        29.75R
REDWOOD FALLS  CLEAR     79  76  90 SE3       29.75R
OLIVIA         CLEAR     77  73  88 SE6       29.75R
PIPESTONE      CLEAR     81  77  89 S5        29.79S
WINDOM         CLEAR     81  75  83 S5        29.78S
WORTHINGTON    CLEAR     80  77  90 SW9       29.80S
JACKSON        CLEAR     79  73  83 S6        29.80R
TRACY          CLEAR     82  78  90 SW9       29.77R HX  90
SLAYTON        CLEAR     78  76  91 S9        29.80S
$$
MNZ065>067-074>077-082>085-091>093-240500-
   South Central Minnesota

CITY           SKY/WX    TMP DP  RH WIND       PRES   REMARKS
MANKATO        CLEAR     75  70  83 SE10      29.78S
NEW ULM        CLEAR     77  75  94 SE7       29.76S
ST JAMES       CLEAR     73  72  94 SE3       29.78R
FAIRMONT       CLEAR     77  73  88 S7        29.78R
GLENCOE        PTCLDY    75  74  97 CALM      29.77R
FARIBAULT      CLOUDY    75  72  88 SE8       29.80S
OWATONNA       MOCLDY    75  72  88 SE10      29.81R
WASECA         CLEAR     72  70  94 SE7       29.81S
ALBERT LEA     CLOUDY    75  73  94 SE9       29.82R
$$
MNZ078>079-086>088-094>096-240500-
   Southeast Minnesota

CITY           SKY/WX    TMP DP  RH WIND       PRES   REMARKS
ROCHESTER      CLOUDY    71  70  96 S8        29.84S
RED WING       CLOUDY    75  70  83 SE8       29.80S
STANTON        CLOUDY    75  70  83 S9        29.78S
DODGE CENTER   CLOUDY    73  70  88 SE8       29.83S
WINONA         MOCLDY    73  70  88 CALM      29.82S
AUSTIN         CLOUDY    73  70  88 SE6       29.83S
PRESTON        PTCLDY    69  67  93 S7        29.85S
$$
ABBREVIATIONS USED IN REMARKS
   TC - TEMPERATURES IN CELSIUS
  WCI - WIND CHILL INDEX
   HX - HEAT INDEX
  VSB - VISIBILITY
$$




USA.gov is the U.S. government's official web portal to all federal, state and local government web resources and services.